Location: Haliburton Scout Reserve
(45.0900°N, 78.3200°W)
Time: 01:23:03
(UTC-04:00)

DIWATA 2B (PO-101) - Pass Details

Date: 21 May 2022
Orbit: 585 x 597 km, 98.0° (Epoch: 27 June)

Event Time Altitude Azimuth Distance (km) Brightness Sun altitude
Exits shadow 01:33:33 - 97° (E) 2,141 ? -24.5°
Reaches altitude 10° 01:34:39 10° 84° (E) 1,913 ? -24.5°
Maximum altitude 01:36:19 12° 60° (ENE) 1,770 ? -24.4°
Drops below altitude 10° 01:38:01 10° 36° (NE) 1,920 ? -24.4°
Sets 01:41:22 0° 7° (N) 2,830 ? -24.3°
